Zurück zum Katalog

COSMOS 1275 DEB

AktivPO
NORAD 12673·DEBRIS·🇷🇺 Russia

Gestartet Jun 4, 1981 von Plesetsk Cosmodrome

Loading…

Nächste Überflüge (nächste 24 Stunden)

TLE

AktuellSource: Space-Track

Epoche: Sep 14, 2026, 11:29 UTC

1 12673U 81053AD  26257.47856892  .00001196  00000-0  63415-3 0  9996
2 12673  82.8462  70.4558 0036707 304.6487  83.1978 14.12584186287503

Verfolge COSMOS 1275 DEB in Echtzeit mit AllMySat

Download on the App Store